Morris, MN

4:37 AM CDT on April 29, 2017 (GMT -0500)
Morris Municipal

Weather History for KMOX - July, 2013

Change the Weather History Date:

Tuesday, July 16, 2013

  Actual Average Record
Temperature  
Mean Temperature 78 °F -  
Max Temperature 87 °F 78 °F 96 °F (2012)
Min Temperature 68 °F 58 °F 46 °F (2014)
Cooling Degree Days 12    
Growing Degree Days 28 (Base 50)    
Moisture  
Dew Point 69 °F    
Average Humidity 74    
Maximum Humidity 94    
Minimum Humidity 49    
Precipitation  
Precipitation 0.00 in - - ()
Sea Level Pressure  
Sea Level Pressure 30.15 in    
Wind  
Wind Speed 9 mph (South)    
Max Wind Speed 17 mph    
Max Gust Speed 23 mph    
Visibility 9 miles    
Events      
Averages and records for this station are not official NWS values.
T = Trace of Precipitation, MM = Missing Value Source: NWS Daily Summary

Daily Weather History Graph

Daily Weather History Graph

Search for Another Location

Airport or City:

Trip Planner

Search our weather history database for the weather conditions in past years. The results will help you decide how hot, cold, wet, or windy it might be!

Date:

Astronomy

Jul. 16, 2013 Rise Set
Actual Time 5:50 AM CDT 9:08 PM CDT
Civil Twilight 5:14 AM CDT 9:44 PM CDT
Nautical Twilight 4:26 AM CDT 10:32 PM CDT
Astronomical Twilight 3:27 AM CDT 11:31 PM CDT
Moon 2:44 PM CDT (7/16) 12:30 AM CDT (7/16)
Length of Visible Light 16h 30m
Length of Day
15h 18m
First Quarter, 56% of the Moon is Illuminated
Jul 16
First Quarter
Jul 22
Full
Jul 29
Last Quarter
Aug 6
New
Aug 14
First Quarter

Hourly Weather History & Observations

Time (CDT) Temp. Heat Index Dew Point Humidity Pressure Visibility Wind Dir Wind Speed Gust Speed Precip Events Conditions
12:10 AM 71.6 °F - 68.0 °F 88% 30.13 in 10.0 mi SSE 8.1 mph - N/A   Clear
12:30 AM 71.6 °F - 68.0 °F 88% 30.12 in 10.0 mi SSE 6.9 mph - N/A   Clear
12:49 AM 71.6 °F - 68.0 °F 88% 30.12 in 10.0 mi SSE 8.1 mph - N/A   Clear
1:10 AM 71.6 °F - 68.0 °F 88% 30.12 in 10.0 mi SSE 9.2 mph - N/A   Clear
1:29 AM 73.4 °F - 68.0 °F 83% 30.12 in 10.0 mi SSE 11.5 mph - N/A   Clear
1:49 AM 71.6 °F - 68.0 °F 88% 30.12 in 7.0 mi SSE 9.2 mph - N/A   Clear
2:10 AM 71.6 °F - 68.0 °F 88% 30.12 in 7.0 mi SSE 9.2 mph - N/A   Clear
2:29 AM 71.6 °F - 68.0 °F 88% 30.11 in 7.0 mi SSE 6.9 mph - N/A   Clear
2:50 AM 71.6 °F - 68.0 °F 88% 30.11 in 7.0 mi South 6.9 mph - N/A   Clear
3:10 AM 71.6 °F - 68.0 °F 88% 30.12 in 7.0 mi SSE 8.1 mph - N/A   Clear
3:29 AM 71.6 °F - 68.0 °F 88% 30.11 in 7.0 mi SSE 9.2 mph - N/A   Clear
3:50 AM 71.6 °F - 68.0 °F 88% 30.11 in 7.0 mi SSE 6.9 mph - N/A   Clear
4:10 AM 69.8 °F - 68.0 °F 94% 30.12 in 5.0 mi South 6.9 mph - N/A   Clear
4:30 AM 69.8 °F - 68.0 °F 94% 30.12 in 5.0 mi South 5.8 mph - N/A   Clear
4:50 AM 69.8 °F - 68.0 °F 94% 30.12 in 5.0 mi South 4.6 mph - N/A   Clear
5:09 AM 69.8 °F - 68.0 °F 94% 30.12 in 4.0 mi South 5.8 mph - N/A   Clear
5:29 AM 68.0 °F - 66.2 °F 94% 30.12 in 3.0 mi SSE 5.8 mph - N/A   Clear
5:49 AM 68.0 °F - 66.2 °F 94% 30.12 in 3.0 mi SSE 5.8 mph - N/A   Clear
6:10 AM 68.0 °F - 66.2 °F 94% 30.13 in 2.5 mi SSE 6.9 mph - N/A   Clear
6:30 AM 69.8 °F - 68.0 °F 94% 30.13 in 3.0 mi SSE 5.8 mph - N/A   Clear
6:49 AM 69.8 °F - 68.0 °F 94% 30.14 in 4.0 mi South 6.9 mph - N/A   Clear
7:09 AM 71.6 °F - 69.8 °F 94% 30.14 in 4.0 mi South 8.1 mph - N/A   Clear
7:29 AM 73.4 °F - 69.8 °F 88% 30.14 in 5.0 mi South 9.2 mph - N/A   Clear
7:50 AM 73.4 °F - 69.8 °F 88% 30.15 in 7.0 mi South 9.2 mph - N/A   Clear
8:09 AM 75.2 °F - 69.8 °F 83% 30.15 in 7.0 mi South 9.2 mph - N/A   Clear
8:30 AM 77.0 °F - 69.8 °F 78% 30.15 in 10.0 mi SSW 11.5 mph - N/A   Clear
8:49 AM 78.8 °F - 69.8 °F 74% 30.15 in 10.0 mi SSW 9.2 mph - N/A   Clear
9:10 AM 78.8 °F - 69.8 °F 74% 30.15 in 10.0 mi SSW 10.4 mph - N/A   Clear
9:29 AM 80.6 °F 83.9 °F 69.8 °F 70% 30.16 in 10.0 mi SSW 12.7 mph 16.1 mph N/A   Clear
9:50 AM 80.6 °F 83.9 °F 69.8 °F 70% 30.16 in 10.0 mi SW 10.4 mph - N/A   Clear
10:10 AM 82.4 °F 86.3 °F 69.8 °F 66% 30.16 in 10.0 mi SSW 9.2 mph - N/A   Clear
10:29 AM 82.4 °F 86.3 °F 69.8 °F 66% 30.16 in 10.0 mi SSW 9.2 mph - N/A   Clear
10:50 AM 82.4 °F 86.3 °F 69.8 °F 66% 30.16 in 10.0 mi SW 11.5 mph - N/A   Clear
11:09 AM 82.4 °F 87.2 °F 71.6 °F 70% 30.17 in 10.0 mi SSW 9.2 mph - N/A   Clear
11:29 AM 84.2 °F 89.6 °F 71.6 °F 66% 30.16 in 10.0 mi SSW 13.8 mph - N/A   Clear
11:50 AM 84.2 °F 88.4 °F 69.8 °F 62% 30.17 in 10.0 mi SSW 11.5 mph - N/A   Clear
12:09 PM 84.2 °F 89.6 °F 71.6 °F 66% 30.16 in 10.0 mi SSW 15.0 mph - N/A   Clear
12:30 PM 84.2 °F 89.6 °F 71.6 °F 66% 30.16 in 10.0 mi SSW 13.8 mph 19.6 mph N/A   Clear
12:49 PM 86.0 °F 90.4 °F 69.8 °F 58% 30.16 in 10.0 mi SSW 16.1 mph - N/A   Clear
1:10 PM 86.0 °F 89.4 °F 68.0 °F 55% 30.16 in 10.0 mi SSW 13.8 mph 19.6 mph N/A   Clear
1:30 PM 87.8 °F 91.4 °F 68.0 °F 52% 30.16 in 10.0 mi SSW 16.1 mph - N/A   Clear
1:49 PM 87.8 °F 90.4 °F 66.2 °F 49% 30.16 in 10.0 mi SW 12.7 mph 18.4 mph N/A   Clear
2:10 PM 87.8 °F 90.4 °F 66.2 °F 49% 30.16 in 10.0 mi SW 13.8 mph 19.6 mph N/A   Clear
2:29 PM 87.8 °F 90.4 °F 66.2 °F 49% 30.16 in 10.0 mi SW 15.0 mph - N/A   Clear
2:50 PM 87.8 °F 90.4 °F 66.2 °F 49% 30.16 in 10.0 mi SW 12.7 mph 17.3 mph N/A   Clear
3:10 PM 87.8 °F 90.4 °F 66.2 °F 49% 30.16 in 10.0 mi SW 12.7 mph - N/A   Clear
3:29 PM 87.8 °F 90.4 °F 66.2 °F 49% 30.16 in 10.0 mi SSW 16.1 mph 20.7 mph N/A   Clear
3:50 PM 87.8 °F 90.4 °F 66.2 °F 49% 30.15 in 10.0 mi SSW 17.3 mph 23.0 mph N/A   Clear
4:09 PM 87.8 °F 90.4 °F 66.2 °F 49% 30.15 in 10.0 mi SSW 15.0 mph - N/A   Clear
4:30 PM 87.8 °F 92.6 °F 69.8 °F 55% 30.15 in 10.0 mi South 16.1 mph - N/A   Clear
4:49 PM 87.8 °F 90.4 °F 66.2 °F 49% 30.15 in 10.0 mi South 15.0 mph 20.7 mph N/A   Clear
5:10 PM 87.8 °F 90.4 °F 66.2 °F 49% 30.15 in 10.0 mi SSW 13.8 mph - N/A   Clear
5:30 PM 87.8 °F 92.6 °F 69.8 °F 55% 30.15 in 10.0 mi SSW 12.7 mph - N/A   Clear
5:49 PM 87.8 °F 90.4 °F 66.2 °F 49% 30.15 in 10.0 mi SW 12.7 mph 17.3 mph N/A   Clear
6:09 PM 87.8 °F 90.4 °F 66.2 °F 49% 30.15 in 10.0 mi SSW 10.4 mph - N/A   Clear
6:30 PM 86.0 °F 90.4 °F 69.8 °F 58% 30.15 in 10.0 mi SSW 9.2 mph - N/A   Clear
6:50 PM 86.0 °F 89.4 °F 68.0 °F 55% 30.15 in 10.0 mi SSW 10.4 mph - N/A   Clear
7:09 PM 86.0 °F 90.4 °F 69.8 °F 58% 30.15 in 10.0 mi South 8.1 mph - N/A   Clear
7:29 PM 84.2 °F 87.3 °F 68.0 °F 58% 30.15 in 10.0 mi South 8.1 mph - N/A   Clear
7:49 PM 82.4 °F 86.3 °F 69.8 °F 66% 30.14 in 10.0 mi South 6.9 mph - N/A   Clear
8:10 PM 82.4 °F 86.3 °F 69.8 °F 66% 30.15 in 10.0 mi SSW 5.8 mph - N/A   Clear
8:30 PM 80.6 °F 83.9 °F 69.8 °F 70% 30.15 in 10.0 mi SSW 5.8 mph - N/A   Clear
8:50 PM 78.8 °F - 69.8 °F 74% 30.16 in 10.0 mi SSW 5.8 mph - N/A   Clear
9:10 PM 75.2 °F - 69.8 °F 83% 30.17 in 10.0 mi SSW 3.5 mph - N/A   Clear
9:30 PM 75.2 °F - 69.8 °F 83% 30.18 in 10.0 mi South 4.6 mph - N/A   Clear
9:49 PM 75.2 °F - 69.8 °F 83% 30.18 in 10.0 mi South 4.6 mph - N/A   Clear
10:10 PM 73.4 °F - 69.8 °F 88% 30.19 in 10.0 mi South 5.8 mph - N/A   Clear
10:29 PM 73.4 °F - 69.8 °F 88% 30.19 in 10.0 mi South 4.6 mph - N/A   Clear
10:49 PM 71.6 °F - 69.8 °F 94% 30.19 in 10.0 mi SSE 4.6 mph - N/A   Clear
11:10 PM 71.6 °F - 69.8 °F 94% 30.19 in 10.0 mi SSE 4.6 mph - N/A   Clear
11:29 PM 71.6 °F - 69.8 °F 94% 30.19 in 10.0 mi SSE 4.6 mph - N/A   Clear
11:50 PM 71.6 °F - 69.8 °F 94% 30.19 in 10.0 mi South 5.8 mph - N/A   Clear